Terug naar catalogus

TISAT 1

ActiefCommunicatiePO
NORAD 36799·PAYLOAD·🇨🇭 Switzerland

Gelanceerd Jul 12, 2010 vanaf Satish Dhawan Space Centre

Loading…

Volgende Passages (komende 24 uur)

TLE

VersSource: Space-Track

Epoch: Sep 14, 2026, 07:50 UTC

1 36799U 10035E   26257.32691780  .00017541  00000-0  51999-3 0  9995
2 36799  98.0776 212.0433 0000782  37.1630 322.9665 15.34920533881369

Volg TISAT 1 in realtime met AllMySat

Download on the App Store